Inquirer Daily News

Weather

Get conditions and forecasts for any City, State, ZIP code or Country:  
Northeast Philadelphia, PA
on Thursday, December 20, 2012

Thursday
Previous Day Next Day
Daily Summary
 ActualAverage (KTTN)Record (KTTN)
Temperature
Mean Temperature °F 34°F  
Max Temperature 46°F 42°F 65°F (1895)
Min Temperature 30°F 26°F -1°F (1942)
Degree Days
Heating Degree Days 28 31  
Month to date heating degree days 562  
Since 1 July heating degree days 1538  
Cooling Degree Days 0 0  
Month to date cooling degree days 0  
Year to date cooling degree days 965  
Moisture
Dew Point 31°F   
Average Humidity 73    
Maximum Humidity 93    
Minimum Humidity 60    
Precipitation
Precipitation 0.24 in 0.12 in 1.47 in (1903)
Month to date precipitation 2.63  
Year to date precipitation 45.37  
Wind
Wind Speed 5 mph   
Max Wind Speed 21 mph   
Max Gust Speed 28 mph   
Visibility 10 miles   
Events Rain   

Key: T is trace of precipitation, MM is missing value
Source: NWS Daily Summary
Time(EST)TemperatureDew PointHumidity Pressure Visibility Wind DirectionWind SpeedGust SpeedPrecipitationEvents Conditions
12:54 AM 37.9°F 26.1°F 62% 30.17 in 10.0 miles NW 3.5 mph - N/A   Clear
1:54 AM 34.0°F 26.1°F 73% 30.19 in 10.0 miles West 3.5 mph - N/A   Clear
2:54 AM 33.1°F 26.1°F 75% 30.18 in 10.0 miles NNW 3.5 mph - N/A   Clear
3:54 AM 34.0°F 26.1°F 73% 30.19 in 10.0 miles Calm Calm - N/A   Clear
4:54 AM 30.0°F 24.1°F 79% 30.20 in 10.0 miles Calm Calm - N/A   Clear
5:54 AM 30.9°F 25.0°F 79% 30.21 in 10.0 miles WNW 5.8 mph - N/A   Clear
6:54 AM 30.0°F 25.0°F 82% 30.20 in 10.0 miles Calm Calm - N/A   Clear
7:54 AM 32.0°F 27.0°F 82% 30.23 in 10.0 miles West 4.6 mph - N/A   Clear
8:54 AM 35.1°F 28.9°F 78% 30.23 in 10.0 miles Calm Calm - N/A   Clear
9:54 AM 37.0°F 27.0°F 67% 30.22 in 10.0 miles NE 6.9 mph - N/A   Clear
10:54 AM 37.0°F 27.0°F 67% 30.20 in 10.0 miles East 8.1 mph - N/A   Clear
11:54 AM 39.9°F 28.0°F 63% 30.15 in 10.0 miles East 10.4 mph - N/A   Clear
12:54 PM 41.0°F 28.9°F 62% 30.12 in 10.0 miles East 12.7 mph - N/A   Clear
1:54 PM 42.1°F 28.9°F 60% 30.13 in 10.0 miles SE 6.9 mph - N/A   Clear
2:54 PM 43.0°F 30.0°F 60% 30.08 in 10.0 miles ESE 9.2 mph - N/A   Clear
3:54 PM 42.8°F 30.2°F 61% 30.07 in 10.0 miles ESE 8.1 mph - N/A   Clear
4:54 PM 43.0°F 30.9°F 62% 30.04 in 10.0 miles SE 12.7 mph - N/A   Clear
5:36 PM 42.8°F 32.0°F 66% 30.05 in 10.0 miles SSE 4.6 mph - N/A   Overcast
5:54 PM 42.1°F 34.0°F 73% 30.05 in 10.0 miles SE 5.8 mph - 0.00 in Rain Light Rain
6:16 PM 42.8°F 35.6°F 76% 30.01 in 10.0 miles East 9.2 mph - 0.00 in Rain Light Rain
6:44 PM 42.8°F 33.8°F 70% 30.04 in 10.0 miles Calm Calm - 0.00 in   Overcast
6:54 PM 43.0°F 34.0°F 71% 30.02 in 10.0 miles ESE 6.9 mph - 0.00 in   Mostly Cloudy
7:44 PM 42.8°F 35.6°F 76% 29.98 in 10.0 miles East 6.9 mph - N/A   Overcast
7:54 PM 42.1°F 35.1°F 76% 29.97 in 10.0 miles East 9.2 mph - N/A   Overcast
8:54 PM 43.0°F 37.0°F 80% 29.92 in 10.0 miles East 9.2 mph - N/A   Overcast
9:54 PM 44.1°F 39.9°F 85% 29.86 in 9.0 miles East 10.4 mph - 0.02 in Rain Light Rain
10:54 PM 44.1°F 42.1°F 93% 29.81 in 7.0 miles East 9.2 mph - 0.12 in Rain Light Rain
11:54 PM 46.9°F 44.1°F 90% 29.68 in 7.0 miles ESE 20.7 mph 27.6 mph 0.10 in Rain Rain
Astronomy
Sunrise:07:18 AM (EST) Moon Rise:11:54 AM (EST)12/20
Sunset:04:37 PM (EST) Moon Set:12:02 AM (EST)12/20
Moon Phase
Dec. 20 Dec. 28 Jan. 04 Jan. 11 Jan. 18

Copyright © 2014 The Weather Underground, Inc.